Location: Ocean City
(38.3360°N, 75.0850°W)
Time: 14:57:56
(UTC-04:00)

BEESAT 2 - Pass Details

Date: 27 May 2019
Orbit: 502 x 528 km, 64.9° (Epoch: 17 June)

Event Time Altitude Azimuth Distance (km) Brightness Sun altitude
Rises 02:02:47 0° 339° (NNW) 2,670 ? -28.5°
Reaches altitude 10° 02:05:13 10° 351° (N) 1,778 ? -28.3°
Maximum altitude 02:08:42 28° 52° (NE) 1,001 ? -28.1°
Enters shadow 02:08:55 28° 58° (ENE) 1,006 ? -28.1°
